Weather History for Baudette, MN

Change the Weather History Date:

Saturday, February 16, 2013

  Actual Average Record
Temperature  
Mean Temperature -1 °F -  
Max Temperature 18 °F 20 °F 51 °F (1981)
Min Temperature -20 °F -3 °F -38 °F (1989)
Degree Days  
Heating Degree Days 66    
Moisture  
Dew Point -9 °F    
Average Humidity 72    
Maximum Humidity 87    
Minimum Humidity 48    
Precipitation  
Precipitation 0.00 in - - ()
Sea Level Pressure  
Sea Level Pressure 30.17 in    
Wind  
Wind Speed 2 mph (SE)    
Max Wind Speed 8 mph    
Max Gust Speed -    
Visibility 10 miles    
Events      
Averages and records for this station are not official NWS values.
T = Trace of Precipitation, MM = Missing Value Source: NWS Daily Summary

Daily Weather History Graph

Daily Weather History Graph

Search for Another Location

Airport:

Trip Planner

Search our weather history database for the weather conditions in past years. The results will help you decide how hot, cold, wet, or windy it might be!

Date:

Astronomy

Feb. 16, 2013 Rise Set
Actual Time 7:24 AM CST 5:41 PM CST
Civil Twilight 6:51 AM CST 6:14 PM CST
Nautical Twilight 6:14 AM CST 6:50 PM CST
Astronomical Twilight 5:38 AM CST 7:27 PM CST
Moon 10:00 AM CST (2/16) 12:17 AM CST (2/16)
Length of Visible Light 11h 22m
Length of Day
10h 17m
Waxing Crescent, 39% of the Moon is Illuminated
Feb 16
Waxing Crescent
Feb 17
First Quarter
Feb 25
Full
Mar 4
Last Quarter
Mar 11
New

Hourly Weather History & Observations

Time (CST) Temp. Windchill Dew Point Humidity Pressure Visibility Wind Dir Wind Speed Gust Speed Precip Events Conditions
12:53 AM -4.0 °F - -8.0 °F 83% 30.26 in 10.0 mi Calm Calm - N/A   Clear
1:53 AM -8.0 °F - -11.0 °F 86% 30.25 in 10.0 mi Calm Calm - N/A   Clear
2:53 AM -11.9 °F - -16.1 °F 82% 30.25 in 10.0 mi Calm Calm - N/A   Clear
3:53 AM -11.9 °F - -17.0 °F 78% 30.24 in 10.0 mi Calm Calm - N/A   Clear
4:53 AM -15.0 °F -25.0 °F -18.9 °F 82% 30.23 in 10.0 mi ESE 3.5 mph - N/A   Clear
5:53 AM -17.0 °F - -20.9 °F 82% 30.23 in 10.0 mi Calm Calm - N/A   Clear
6:26 AM -16.6 °F - -22.0 °F 76% 30.12 in 10.0 mi Calm Calm - N/A   Partly Cloudy
6:40 AM -18.4 °F -28.9 °F -23.8 °F 76% 30.12 in 10.0 mi ESE 3.5 mph - N/A   Mostly Cloudy
6:53 AM -17.0 °F - -22.0 °F 78% 30.23 in 9.0 mi Calm Calm - N/A   Overcast
7:17 AM -18.4 °F -31.4 °F -23.8 °F 76% 30.11 in 10.0 mi East 4.6 mph - N/A   Scattered Clouds
7:37 AM -20.2 °F -33.5 °F -25.6 °F 76% 30.11 in 10.0 mi ESE 4.6 mph - N/A   Mostly Cloudy
7:53 AM -18.0 °F - -22.0 °F 82% 30.22 in 10.0 mi Calm Calm - N/A   Scattered Clouds
8:53 AM -15.0 °F - -18.0 °F 86% 30.22 in 10.0 mi Calm Calm - N/A   Clear
9:53 AM -4.0 °F -12.4 °F -7.1 °F 87% 30.21 in 10.0 mi SE 3.5 mph - N/A   Clear
10:53 AM 3.0 °F -6.4 °F -2.0 °F 80% 30.19 in 10.0 mi ESE 4.6 mph - N/A   Clear
11:53 AM 10.0 °F 0.4 °F 1.0 °F 67% 30.20 in 10.0 mi South 5.8 mph - N/A   Clear
12:53 PM 10.9 °F 0.2 °F 1.0 °F 64% 30.18 in 10.0 mi ESE 6.9 mph - N/A   Clear
1:53 PM 15.1 °F 7.7 °F 1.9 °F 56% 30.17 in 10.0 mi SSE 4.6 mph - N/A   Clear
2:53 PM 16.0 °F 5.3 °F 1.9 °F 54% 30.16 in 10.0 mi ESE 8.1 mph - N/A   Clear
3:53 PM 18.0 °F 7.7 °F 1.0 °F 48% 30.13 in 10.0 mi South 8.1 mph - N/A   Clear
4:53 PM 15.1 °F 6.4 °F 1.0 °F 54% 30.14 in 10.0 mi South 5.8 mph - N/A   Clear
5:53 PM 14.0 °F 8.2 °F 1.0 °F 56% 30.15 in 10.0 mi SE 3.5 mph - N/A   Clear
6:53 PM 10.9 °F 4.7 °F -0.0 °F 61% 30.14 in 10.0 mi SE 3.5 mph - N/A   Clear
7:53 PM 9.0 °F 2.4 °F -0.9 °F 64% 30.13 in 10.0 mi SE 3.5 mph - N/A   Clear
8:53 PM 7.0 °F -3.3 °F -0.9 °F 70% 30.11 in 10.0 mi SSE 5.8 mph - N/A   Clear
9:53 PM 6.1 °F -4.3 °F -0.9 °F 73% 30.08 in 10.0 mi SE 5.8 mph - N/A   Clear
10:53 PM 5.0 °F -4.1 °F -2.0 °F 73% 30.06 in 10.0 mi SE 4.6 mph - N/A   Mostly Cloudy
11:53 PM 3.9 °F -3.4 °F -2.0 °F 76% 30.03 in 10.0 mi SSE 3.5 mph - N/A   Partly Cloudy